Vertical_Velocity
-1 -2 0 0 -0 1 0 -0 0 2 0 -0 1 -0 -1 2 1 0 2 -3 -2 -2 -2 -2 -2 0 -0 -1 0 -0 3 2 -0 1 -1 3 -2 0 0 0 0 -1 -1 2
0 0 1 1 -1 -0 -1 -1 1 1 2 0 3 -1 -1 2 1 2 1 0 -2 -2 -1 -1 -1 -0 -1 0 -0 1 2 3 5 4 1 2 0 1 -0 -0 -0 -1 -1 1
0 0 1 -1 -1 -1 -1 1 1 -0 -2 -0 2 14 1 -1 -1 0 0 1 1 -2 2 -2 -1 -2 1 -1 -1 -2 3 3 3 3 5 -2 0 2 2 -1 -0 -2 -1 0
-0 -0 0 -0 -1 -1 1 -1 -2 -2 -1 6 -2 6 -2 0 -0 -1 0 1 -0 -0 -0 1 -0 -1 -1 -1 -0 -1 1 -1 6 12 0 2 3 0 -1 1 0 -1 -2 -0
0 0 0 -0 -1 -1 -3 -3 -1 -1 -2 2 7 -4 -3 -3 -3 1 -2 1 4 3 2 1 1 -2 -3 2 -1 0 0 -1 2 -1 7 1 1 1 0 1 -0 -2 -4 -2
1 -1 -0 -1 -1 -3 -0 -1 -2 -2 -1 7 -3 -4 50 -1 1 -1 1 2 3 4 3 4 5 1 1 -1 1 -2 -3 -0 -1 7 4 6 1 3 -1 0 1 -3 -0 -0
-1 -1 -3 -1 -3 -1 -5 -3 4 6 5 29 -2 -14 -15 -2 1 -10 -1 -3 -4 -1 -4 2 1 0 -2 2 1 -2 -1 3 -4 3 1 2 1 5 4 0 1 0 -3 -1
2 -8 -0 -2 -2 -2 0 -1 1 -6 17 48 -8 8 4 2 3 0 2 -1 -4 1 -7 0 3 -1 0 2 -2 1 -1 4 -1 0 2 4 0 -0 -1 -0 2 1 1 -1
-0 0 -1 -0 -1 1 6 -3 -5 3 -8 -12 17 -1 -6 -1 -0 -0 -2 -3 -2 -6 -2 -8 -9 -2 -1 -1 -0 2 -1 0 -0 0 0 -0 -1 2 -1 1 1 2 2 0
-1 -1 -1 -5 -1 -4 -1 -4 -0 -1 -3 -12 20 -5 18 1 -3 1 -2 -0 -2 1 -1 -3 -1 -4 -0 -2 2 0 -2 3 0 -2 -1 1 3 1 1 -1 0 -1 1 2
-0 2 5 -0 1 12 -2 -1 -3 -8 -9 6 10 24 -9 4 0 -4 -1 -0 1 -1 2 1 0 -2 -1 0 -0 -1 1 -4 -1 -2 -1 1 -0 2 1 1 0 1 0 -1
-3 2 4 1 -12 -1 -4 -3 -3 -1 20 -1 -17 17 -8 -1 2 2 3 2 0 -0 1 2 1 -1 -0 -2 1 1 -2 -4 -1 -0 0 -1 -1 0 5 0 -0 1 -1 -1
-2 0 2 2 -6 1 -3 -1 1 -0 -1 4 -8 27 -2 -5 -3 1 3 -1 -0 -1 -3 2 -2 4 2 -2 -1 -3 -0 -1 -2 -1 -1 -1 -1 -1 -2 -0 2 0 -1 -1
-1 3 1 -0 4 -6 2 0 -1 -0 1 24 11 -7 11 -11 -3 -2 -0 1 1 2 -0 -0 4 1 -2 2 0 1 -2 -4 -1 1 -0 -0 1 1 3 1 0 -1 1 -2
-3 -0 -2 1 1 2 1 1 4 -3 -1 -4 0 1 -1 1 -2 -1 0 1 1 -1 -0 1 -2 4 4 1 -1 3 1 2 -2 -4 -3 -0 -2 -1 -3 -3 4 -1 0 1
-2 3 1 -0 -1 -1 -4 0 -3 -0 0 1 0 6 -3 -3 0 1 1 1 2 1 -4 -2 -1 0 2 1 3 0 0 3 2 2 3 0 2 -2 1 5 -1 -1 -1 -1
-1 -3 -2 3 -0 1 -4 -1 1 0 1 2 1 2 -5 0 -2 0 1 0 0 1 1 -1 -4 -4 2 1 1 1 2 1 0 0 1 -1 -1 0 0 1 1 0 -2 -2
1 -1 -2 3 -4 -2 1 5 0 3 2 -1 1 -3 -3 -4 -1 -2 -1 1 1 -0 -1 0 2 -2 -6 0 1 1 1 0 0 1 -1 2 -1 -0 1 -2 1 2 0 0
-0 -1 -3 -1 3 2 -0 -2 0 3 -6 4 -2 -1 -3 -1 -3 -4 -0 -1 0 2 1 0 0 1 -2 -3 -2 -1 0 1 0 -1 -0 -1 1 -0 -1 -3 -2 -2 -3 -4
0 -0 0 -5 3 4 -8 -1 1 3 -0 6 1 -1 1 0 3 -19 -3 -1 0 1 3 1 2 1 1 -0 -1 -2 -2 1 3 -2 0 3 2 0 2 3 -0 -1 -2 1
-3 0 2 -1 2 -3 6 1 -1 -0 -7 -1 -0 -1 -2 -2 -4 -2 -3 -3 -1 0 2 4 2 1 2 1 0 0 -0 -0 -1 2 -3 1 2 1 -2 -1 3 0 -1 -2
1 -1 -3 1 0 -3 12 0 3 1 -1 2 2 1 -0 -0 1 -0 -4 -3 -2 -0 -1 2 4 3 1 1 2 1 -1 -1 -0 -2 -2 1 1 1 0 0 -1 -0 -2 -4
-4 3 0 7 -11 3 0 -2 2 0 -1 1 0 3 3 1 -1 -2 -1 -1 -2 -0 -1 1 2 3 5 3 1 0 1 -1 -2 -0 -4 -4 -1 0 1 -3 -0 -2 -1 1
-2 0 1 -1 -2 1 -3 -1 1 0 -2 -1 -3 -1 -0 1 1 2 1 -0 1 -1 -2 -3 -1 0 2 1 3 3 -1 2 0 -3 -0 -2 -3 9 4 -3 -1 -5 -1 -4
-8 9 -4 5 -2 -1 3 -0 -3 -1 2 -1 -1 0 1 -2 2 -2 -0 -1 -1 -1 -3 -3 0 1 2 1 -0 2 3 2 -0 1 -4 -2 -4 -4 8 46 -0 -2 -2 -5
-4 -0 -1 3 -2 1 3 -3 -1 2 -1 -1 0 -1 -1 -1 2 -1 0 -3 -2 -1 1 -2 -1 0 3 -2 3 -1 -2 0 1 3 -2 -0 -2 -1 -2 -1 2 8 6 5
Height
5911 5912 5912 5913 5913 5913 5912 5911 5910 5908 5908 5907 5906 5904 5901 5901 5899 5897 5896 5895 5893 5894 5893 5893 5894 5896 5898 5900 5902 5904 5906 5907 5909 5909 5909 5909 5909 5912 5913 5915 5917 5918 5919 5921
5909 5910 5911 5911 5911 5911 5910 5909 5910 5907 5906 5906 5905 5902 5901 5899 5897 5896 5895 5894 5891 5891 5891 5891 5892 5893 5895 5898 5900 5902 5904 5905 5906 5907 5908 5908 5908 5911 5912 5913 5915 5916 5917 5920
5907 5908 5909 5909 5909 5909 5908 5908 5907 5906 5904 5905 5904 5904 5900 5898 5896 5894 5893 5892 5891 5888 5889 5889 5891 5891 5893 5895 5897 5900 5902 5903 5903 5905 5904 5903 5906 5908 5910 5911 5913 5914 5916 5918
5905 5906 5906 5907 5907 5907 5907 5907 5905 5904 5904 5906 5903 5905 5901 5898 5896 5894 5892 5891 5890 5887 5886 5887 5888 5889 5890 5891 5893 5896 5898 5900 5902 5903 5902 5903 5904 5907 5908 5910 5911 5913 5914 5916
5904 5903 5904 5904 5904 5905 5905 5905 5904 5903 5904 5904 5903 5903 5900 5898 5895 5893 5891 5890 5889 5886 5884 5884 5885 5885 5886 5889 5892 5893 5895 5897 5899 5900 5901 5901 5902 5905 5905 5907 5908 5910 5913 5915
5901 5901 5901 5902 5902 5903 5904 5904 5903 5903 5905 5906 5902 5901 5895 5899 5896 5893 5890 5889 5886 5884 5882 5882 5882 5884 5886 5888 5890 5890 5892 5895 5896 5897 5899 5900 5901 5902 5903 5905 5906 5907 5911 5913
5899 5899 5899 5899 5900 5902 5902 5903 5908 5909 5907 5907 5901 5898 5896 5897 5895 5891 5889 5887 5885 5883 5880 5880 5881 5882 5884 5886 5887 5888 5890 5890 5892 5894 5896 5897 5899 5900 5901 5903 5905 5907 5909 5911
5900 5899 5898 5898 5900 5902 5903 5904 5906 5906 5908 5906 5902 5902 5899 5897 5895 5891 5888 5886 5884 5882 5879 5878 5880 5882 5884 5884 5884 5884 5885 5886 5887 5890 5893 5895 5897 5898 5900 5902 5905 5907 5909 5910
5898 5900 5898 5898 5899 5901 5902 5902 5902 5903 5901 5904 5903 5902 5896 5895 5893 5890 5887 5886 5883 5881 5879 5877 5877 5879 5880 5881 5882 5881 5881 5880 5881 5886 5889 5891 5893 5896 5898 5900 5903 5905 5907 5908
5896 5898 5897 5896 5897 5898 5898 5899 5901 5901 5903 5903 5903 5900 5899 5893 5891 5889 5887 5885 5883 5881 5879 5878 5876 5877 5877 5878 5879 5879 5879 5880 5880 5882 5885 5887 5890 5892 5896 5898 5899 5902 5904 5906
5893 5895 5897 5895 5895 5899 5896 5897 5897 5898 5899 5901 5901 5900 5894 5891 5888 5887 5887 5885 5883 5882 5879 5877 5876 5875 5875 5875 5875 5877 5877 5878 5878 5879 5882 5884 5886 5888 5892 5894 5897 5899 5901 5903
5890 5891 5892 5895 5890 5890 5891 5893 5894 5897 5898 5895 5895 5896 5890 5887 5887 5886 5885 5884 5882 5881 5880 5877 5875 5874 5873 5874 5874 5874 5874 5875 5876 5877 5879 5880 5883 5886 5888 5890 5893 5895 5898 5899
5886 5887 5888 5890 5890 5889 5887 5888 5890 5892 5894 5893 5893 5893 5883 5882 5882 5882 5882 5880 5880 5878 5878 5878 5876 5875 5873 5872 5872 5873 5872 5873 5874 5875 5877 5877 5880 5882 5884 5886 5889 5891 5893 5895
5881 5882 5883 5884 5886 5883 5882 5882 5883 5885 5889 5889 5889 5887 5883 5876 5877 5878 5878 5877 5877 5876 5875 5875 5875 5874 5873 5873 5871 5871 5872 5873 5874 5876 5877 5877 5878 5879 5881 5882 5884 5886 5889 5891
5877 5876 5876 5876 5876 5876 5875 5875 5876 5875 5878 5880 5882 5878 5875 5871 5872 5872 5872 5872 5872 5872 5872 5871 5871 5871 5872 5872 5872 5872 5871 5870 5872 5873 5874 5875 5877 5877 5878 5879 5881 5884 5885 5887
5871 5871 5869 5870 5868 5868 5868 5867 5867 5868 5869 5870 5870 5869 5862 5864 5865 5865 5865 5866 5866 5866 5867 5868 5867 5867 5868 5869 5869 5870 5870 5870 5871 5871 5872 5873 5873 5874 5875 5877 5878 5880 5881 5882
5864 5863 5862 5864 5862 5860 5861 5861 5861 5860 5860 5861 5862 5860 5854 5856 5857 5858 5858 5859 5859 5859 5860 5862 5863 5863 5863 5864 5865 5866 5866 5867 5867 5868 5869 5870 5871 5872 5871 5873 5874 5875 5876 5877
5858 5856 5854 5855 5855 5854 5854 5854 5853 5852 5851 5850 5850 5849 5848 5848 5848 5850 5852 5852 5852 5853 5852 5854 5856 5857 5857 5858 5860 5861 5861 5861 5862 5863 5865 5867 5867 5868 5869 5869 5870 5872 5872 5873
5850 5849 5848 5847 5845 5846 5845 5846 5845 5844 5841 5842 5841 5840 5840 5840 5840 5840 5842 5844 5845 5846 5846 5846 5848 5849 5850 5850 5852 5854 5856 5857 5856 5858 5860 5862 5863 5863 5865 5866 5867 5868 5870 5871
5842 5841 5841 5839 5838 5836 5832 5836 5836 5834 5833 5834 5833 5832 5832 5832 5832 5826 5832 5833 5835 5837 5839 5839 5840 5841 5843 5843 5844 5846 5849 5851 5852 5852 5855 5857 5858 5860 5862 5863 5863 5865 5867 5868
5832 5832 5831 5829 5829 5825 5825 5826 5826 5826 5825 5822 5823 5822 5822 5822 5822 5820 5822 5824 5825 5826 5829 5831 5832 5833 5835 5836 5838 5839 5840 5843 5845 5847 5848 5850 5852 5854 5856 5858 5860 5861 5862 5863
5823 5821 5820 5820 5819 5817 5816 5816 5818 5816 5814 5813 5813 5813 5812 5812 5812 5812 5812 5814 5815 5816 5818 5820 5823 5825 5826 5828 5830 5831 5832 5833 5836 5838 5841 5843 5845 5848 5849 5851 5853 5855 5856 5858
5813 5813 5810 5812 5808 5806 5805 5805 5805 5805 5804 5803 5802 5802 5802 5802 5801 5802 5802 5803 5805 5806 5807 5809 5811 5813 5816 5819 5821 5821 5823 5825 5827 5831 5833 5835 5837 5840 5843 5845 5848 5849 5849 5851
5802 5802 5801 5799 5798 5797 5796 5794 5793 5792 5791 5791 5789 5789 5790 5791 5791 5791 5791 5792 5793 5794 5796 5797 5798 5801 5804 5806 5809 5811 5813 5816 5818 5820 5824 5828 5831 5830 5834 5838 5840 5842 5843 5843
5791 5790 5788 5788 5788 5784 5786 5783 5781 5779 5780 5779 5778 5777 5778 5778 5779 5778 5779 5779 5780 5781 5782 5784 5786 5788 5791 5793 5796 5798 5802 5805 5807 5809 5813 5817 5820 5822 5824 5818 5826 5832 5832 5832
5779 5775 5776 5774 5773 5772 5773 5769 5769 5768 5767 5765 5765 5766 5765 5765 5766 5765 5766 5766 5766 5767 5769 5771 5773 5775 5778 5781 5784 5786 5788 5792 5796 5799 5801 5806 5809 5812 5814 5816 5819 5822 5822 5822